Wind_Speed
12 12 12 12 12 12 13 14 14 13 13 12 12 12 12 13 13 13 12 12 12 12 11 11 10 10 11 11 11 11 11 11 11 12 12 12 13 13 14 14 14 14 14
12 13 13 13 13 13 14 14 14 14 13 13 12 12 13 13 13 13 13 13 13 13 12 12 12 11 11 12 12 12 12 12 13 13 13 14 14 15 15 15 15 15 15
13 13 14 13 14 14 14 15 14 14 13 12 13 13 13 13 13 14 13 13 14 13 13 13 13 12 12 12 13 13 13 13 13 14 15 15 15 14 15 16 16 17 16
14 14 13 14 15 15 15 15 14 14 13 13 13 13 13 13 13 14 14 14 14 13 13 13 13 13 13 13 13 13 14 14 14 14 15 15 15 16 16 17 17 18 17
13 13 14 14 15 15 15 15 13 14 14 13 13 13 13 14 14 14 14 14 13 13 14 13 13 13 13 14 14 15 15 15 15 16 16 16 16 17 17 18 19 19 19
14 14 14 15 15 15 16 16 15 14 14 14 15 15 14 15 15 15 14 14 14 14 14 14 14 14 14 14 15 16 16 17 17 17 17 17 17 18 18 19 20 20 21
15 15 15 15 15 16 16 16 16 16 15 16 16 16 15 15 15 15 15 15 15 15 15 15 15 16 16 16 15 16 17 18 18 18 19 19 19 20 20 20 21 21 21
16 15 15 15 16 16 16 16 17 17 17 16 16 16 16 16 16 16 16 16 16 16 16 15 15 16 17 17 17 16 18 18 18 18 19 20 20 21 21 21 21 21 21
17 16 16 15 16 16 17 17 17 17 18 17 17 18 17 17 17 17 17 17 18 18 17 16 16 16 17 17 17 17 17 18 19 19 19 20 21 22 22 23 23 24 23
17 16 16 16 17 17 17 18 18 18 18 18 18 18 18 18 18 18 18 18 18 18 18 17 17 17 17 18 18 18 18 18 18 19 20 21 22 22 23 25 25 25 25
18 17 17 17 17 17 18 19 19 19 19 18 18 18 18 19 19 19 19 20 20 19 19 18 18 18 18 19 19 19 19 19 20 20 21 21 22 22 23 24 24 24 24
19 19 18 18 18 18 18 19 19 19 19 19 18 19 20 20 20 20 19 19 20 20 20 20 19 19 19 20 20 20 20 20 21 22 22 22 22 23 23 23 23 24 24
19 20 20 20 19 19 19 19 20 19 19 19 20 20 21 21 22 21 20 21 21 21 21 21 20 20 21 21 21 21 22 21 22 22 23 23 23 23 23 23 23 24 25
21 21 21 21 21 20 20 20 20 20 20 20 21 22 22 22 22 22 22 22 22 23 23 22 22 22 22 23 23 23 23 22 22 23 23 24 24 24 24 24 25 25 25
22 22 22 21 21 21 21 21 22 22 22 22 22 23 23 23 23 23 23 24 24 24 24 23 23 24 24 24 25 25 24 24 23 24 24 25 25 25 25 25 25 26 26
23 23 22 22 23 22 23 23 23 23 23 24 24 24 24 24 24 24 24 25 25 26 25 25 25 25 25 25 25 25 25 25 24 24 25 26 27 26 26 26 26 26 26
23 23 24 24 24 24 24 23 23 24 24 25 25 25 25 25 25 26 26 26 26 26 26 26 26 26 25 25 26 27 27 25 25 25 25 25 25 26 26 27 27 27 27
24 24 24 25 25 24 24 24 25 25 25 25 25 25 26 26 26 27 27 27 27 27 27 27 27 27 26 26 26 26 25 25 25 25 25 26 27 27 27 27 26 26 26
24 24 25 25 25 24 25 25 26 26 26 26 26 26 27 27 28 28 28 28 28 28 28 28 28 28 28 28 26 26 25 26 26 26 27 27 27 28 27 27 26 26 26
25 26 26 25 25 26 26 26 26 27 27 26 26 27 27 28 28 28 28 28 28 28 28 28 28 28 28 27 26 26 26 27 27 28 28 28 28 28 28 27 27 26 26
26 26 25 25 26 27 27 27 27 27 27 27 27 28 28 29 29 29 29 28 28 28 29 28 28 27 27 27 27 27 27 27 27 28 28 28 28 28 28 28 28 27 27
26 26 26 26 27 27 27 28 28 28 28 27 27 28 28 29 29 29 29 29 28 29 29 28 27 27 26 27 27 27 28 28 28 28 28 28 28 28 28 28 28 28 28
27 27 26 27 27 28 28 28 28 27 27 27 27 28 28 28 28 28 28 29 29 28 27 27 26 26 27 27 27 28 29 29 29 28 28 28 28 29 28 28 27 27 26
27 26 27 27 28 28 27 27 28 28 27 28 28 28 28 28 27 27 28 28 27 27 27 27 27 27 28 29 28 28 29 29 29 29 30 30 30 29 28 28 27 26 26
27 27 27 28 29 28 27 27 28 28 28 28 28 27 27 26 27 27 27 27 27 27 27 28 28 28 29 29 29 29 30 30 30 31 31 31 30 28 27 26 26 26 27
26 26 27 27 27 27 27 27 28 28 28 28 28 27 27 27 27 27 27 27 27 27 27 28 28 29 29 29 29 29 30 30 31 31 30 29 28 28 27 26 26 26 26
Wind_Direction
340 341 341 344 348 347 346 343 342 337 335 334 331 331 330 328 326 324 321 319 317 315 313 308 301 295 294 295 294 294 290 287 282 281 282 281 281 282 283 283 283 283 280
336 337 338 341 343 344 344 343 340 338 333 333 332 331 330 327 324 321 318 314 313 313 312 307 302 296 293 293 294 294 291 289 285 283 282 281 282 282 281 282 284 284 283
333 334 336 338 339 340 340 340 340 339 335 332 332 334 332 330 327 322 320 317 313 310 310 308 304 298 294 291 292 292 290 288 287 286 287 285 285 285 285 284 283 283 283
331 332 334 336 336 337 338 339 340 340 338 333 331 332 333 332 330 327 323 318 313 311 311 308 304 300 295 292 290 290 289 288 288 287 287 286 285 285 285 287 286 285 285
331 331 333 335 335 336 337 337 337 338 337 331 329 329 328 328 328 329 328 322 318 315 314 311 307 304 299 295 290 288 288 288 288 287 288 287 285 284 285 286 287 286 286
329 328 330 333 334 334 333 335 335 334 334 333 332 330 329 328 328 329 329 324 321 319 316 312 309 307 304 296 291 287 287 287 288 288 286 286 286 285 286 285 285 287 286
323 324 327 329 331 332 332 332 331 330 329 327 327 328 329 329 330 329 328 326 323 321 317 310 306 305 304 299 292 289 288 288 287 288 287 285 285 286 285 285 286 287 286
319 320 322 325 327 328 329 329 328 328 327 327 328 327 326 326 327 328 327 327 325 324 320 315 311 309 305 303 298 292 291 290 288 288 288 286 285 286 286 285 283 286 288
319 317 319 321 323 325 326 326 325 324 323 322 324 326 323 323 323 324 325 324 322 320 320 317 314 312 310 308 304 298 296 295 291 289 290 290 287 285 285 286 284 285 287
313 315 317 317 319 321 322 323 322 321 321 320 321 323 322 320 321 322 323 322 321 319 318 317 315 312 309 307 304 300 298 297 298 296 293 292 291 287 285 283 285 286 285
308 311 312 312 314 315 317 318 318 318 319 318 319 321 322 321 320 319 321 322 322 321 320 317 315 313 310 310 308 306 298 297 297 297 296 295 294 292 290 288 288 288 288
303 306 307 308 312 313 314 315 315 316 318 318 317 318 318 320 320 318 317 319 321 322 321 317 313 311 309 308 307 305 303 298 297 297 298 298 295 293 291 290 288 287 287
303 304 305 305 307 309 311 312 314 315 316 317 317 318 317 318 318 318 316 316 317 318 318 316 312 309 308 306 305 303 302 299 297 296 296 297 297 293 291 290 288 286 285
301 299 298 301 304 307 309 311 313 314 315 314 315 315 315 314 314 314 314 315 315 315 314 313 311 309 308 307 305 303 300 298 297 296 296 295 294 293 292 291 290 287 284
300 300 299 299 303 306 306 307 309 310 312 313 313 313 312 311 311 313 313 313 313 313 313 311 309 308 307 306 305 303 300 299 297 295 295 294 294 293 292 290 289 288 286
297 300 302 301 303 303 304 303 304 307 309 310 311 311 310 309 309 308 311 312 311 313 312 311 309 309 308 309 307 305 303 301 299 296 294 293 294 294 291 290 289 288 288
296 297 300 302 302 302 302 301 302 304 307 308 309 309 308 307 306 306 307 308 309 310 311 311 309 309 310 310 308 307 305 303 301 300 297 297 296 295 292 290 289 288 287
296 296 297 299 300 301 300 302 303 303 304 305 307 308 307 306 305 305 306 307 306 307 308 309 309 310 310 308 305 304 304 304 303 301 300 298 298 297 295 293 291 290 287
292 294 295 297 299 298 299 301 303 304 304 305 306 306 306 306 305 306 306 306 306 306 307 308 309 308 307 307 305 304 305 305 304 301 301 301 299 298 297 295 293 291 289
292 293 294 295 296 297 298 300 302 303 303 303 304 305 306 306 306 306 305 305 305 305 306 307 307 306 306 306 306 306 304 303 302 301 300 299 299 298 298 295 293 291 290
292 292 294 295 295 296 298 299 301 302 303 304 304 304 305 305 305 305 304 304 305 305 306 306 306 306 308 308 308 306 305 304 302 302 302 302 301 299 297 296 294 292 291
289 290 291 293 295 295 296 298 300 301 301 302 304 304 304 304 304 303 303 303 302 303 304 304 305 307 307 307 307 307 306 306 304 303 303 303 302 300 298 296 295 293 291
288 289 290 292 293 294 296 298 300 301 300 301 303 304 304 305 304 303 303 303 303 303 304 304 305 306 307 308 308 307 307 307 306 304 303 302 302 301 299 297 294 294 292
286 286 289 292 293 294 294 297 299 300 301 300 301 303 304 305 306 305 305 306 307 306 307 308 309 308 307 307 307 306 306 306 305 304 303 302 301 301 300 297 296 293 292
286 285 288 289 290 293 295 297 299 300 300 302 304 305 306 307 308 310 310 308 308 308 307 307 307 307 308 308 307 307 306 305 304 304 302 302 301 301 302 299 297 295 294
286 288 290 290 292 296 297 298 298 299 302 305 306 307 308 308 308 308 309 309 307 306 305 305 306 307 307 308 307 307 308 307 306 305 305 304 304 303 302 300 298 295 294
Height
5903 5901 5900 5898 5896 5895 5893 5891 5889 5887 5885 5883 5882 5880 5879 5877 5875 5874 5873 5871 5870 5869 5868 5867 5866 5866 5866 5865 5865 5865 5865 5865 5864 5864 5864 5864 5864 5864 5863 5863 5863 5863 5863
5902 5901 5899 5897 5896 5894 5892 5889 5887 5885 5883 5882 5881 5879 5878 5876 5874 5872 5871 5870 5868 5867 5866 5865 5864 5864 5863 5863 5863 5862 5862 5862 5861 5861 5861 5861 5862 5861 5860 5859 5859 5859 5859
5902 5900 5898 5897 5895 5893 5891 5889 5886 5884 5882 5881 5879 5878 5876 5874 5873 5871 5869 5868 5866 5865 5864 5863 5862 5861 5861 5860 5860 5860 5859 5859 5858 5858 5858 5857 5857 5857 5857 5856 5856 5856 5856
5901 5899 5898 5896 5894 5892 5890 5888 5885 5883 5881 5880 5878 5877 5875 5873 5871 5869 5867 5865 5864 5862 5861 5860 5859 5858 5858 5857 5857 5857 5856 5856 5855 5854 5854 5854 5853 5853 5853 5852 5852 5851 5851
5900 5899 5897 5895 5893 5891 5889 5887 5885 5883 5881 5879 5877 5875 5873 5871 5869 5867 5865 5863 5862 5860 5859 5857 5856 5855 5854 5854 5853 5853 5853 5852 5852 5851 5850 5850 5849 5849 5849 5849 5848 5847 5846
5899 5897 5895 5894 5892 5890 5888 5886 5884 5882 5880 5878 5875 5873 5871 5869 5867 5865 5864 5862 5860 5858 5856 5855 5854 5852 5851 5851 5850 5850 5849 5849 5848 5847 5846 5846 5845 5845 5844 5844 5843 5842 5841
5898 5896 5894 5892 5891 5889 5886 5884 5882 5880 5878 5876 5874 5872 5870 5868 5866 5864 5862 5860 5858 5856 5854 5852 5851 5850 5849 5847 5846 5846 5845 5844 5843 5843 5842 5841 5841 5840 5840 5839 5838 5837 5836
5896 5895 5893 5891 5889 5887 5885 5883 5881 5879 5877 5875 5872 5870 5868 5866 5864 5862 5860 5857 5855 5853 5851 5849 5848 5847 5845 5844 5843 5842 5841 5840 5839 5838 5837 5836 5836 5835 5834 5833 5833 5832 5831
5894 5892 5890 5889 5887 5885 5883 5881 5879 5877 5875 5873 5870 5868 5866 5864 5862 5859 5857 5855 5853 5851 5848 5846 5845 5844 5842 5841 5839 5838 5836 5835 5834 5833 5832 5831 5831 5830 5829 5828 5827 5826 5825
5891 5890 5889 5887 5885 5883 5881 5879 5877 5875 5873 5870 5868 5866 5863 5861 5859 5857 5855 5852 5850 5848 5846 5844 5842 5840 5839 5837 5835 5834 5832 5831 5829 5828 5827 5826 5825 5824 5823 5822 5820 5819 5818
5889 5887 5886 5883 5882 5880 5879 5876 5874 5872 5870 5867 5865 5863 5861 5859 5856 5854 5852 5850 5847 5845 5843 5841 5839 5837 5835 5833 5831 5829 5827 5826 5825 5823 5822 5821 5820 5818 5817 5815 5814 5813 5812
5886 5884 5882 5880 5879 5877 5875 5873 5871 5869 5867 5864 5862 5860 5858 5856 5853 5851 5849 5847 5844 5842 5839 5837 5835 5833 5831 5829 5827 5825 5823 5821 5820 5818 5817 5815 5814 5812 5811 5810 5808 5807 5805
5882 5880 5879 5877 5876 5874 5872 5870 5868 5866 5864 5861 5859 5857 5854 5852 5850 5847 5845 5843 5841 5838 5836 5833 5831 5829 5827 5824 5822 5820 5818 5816 5815 5813 5811 5810 5808 5806 5805 5803 5802 5800 5799
5879 5877 5875 5873 5872 5870 5868 5866 5864 5862 5860 5857 5855 5853 5851 5848 5846 5843 5841 5839 5836 5834 5831 5829 5827 5824 5822 5819 5817 5815 5812 5810 5809 5807 5805 5803 5802 5800 5798 5797 5795 5794 5792
5875 5872 5868 5868 5867 5866 5864 5862 5860 5858 5856 5853 5851 5849 5846 5844 5842 5839 5837 5834 5832 5829 5827 5824 5822 5819 5817 5814 5811 5809 5807 5805 5803 5801 5799 5797 5795 5793 5792 5790 5788 5787 5785
5872 5869 5865 5863 5863 5861 5859 5857 5855 5853 5851 5849 5847 5844 5842 5839 5837 5835 5832 5829 5827 5824 5822 5819 5816 5813 5810 5808 5805 5803 5800 5798 5796 5794 5792 5790 5788 5786 5784 5782 5781 5779 5778
5867 5866 5863 5861 5859 5857 5855 5851 5849 5848 5846 5844 5841 5839 5837 5834 5832 5829 5827 5824 5822 5819 5816 5814 5810 5807 5804 5801 5799 5796 5794 5791 5789 5787 5785 5783 5780 5778 5776 5775 5773 5771 5770
5862 5861 5859 5856 5854 5851 5850 5847 5845 5843 5841 5838 5836 5834 5831 5829 5826 5824 5821 5819 5816 5813 5810 5808 5804 5801 5799 5796 5793 5791 5788 5785 5783 5780 5778 5775 5773 5771 5768 5767 5765 5763 5761
5857 5855 5853 5851 5848 5846 5844 5842 5840 5838 5835 5833 5830 5828 5826 5823 5820 5818 5815 5812 5810 5807 5804 5801 5798 5795 5793 5790 5787 5784 5781 5779 5776 5773 5771 5768 5766 5763 5761 5759 5757 5755 5753
5851 5849 5848 5846 5843 5841 5839 5837 5834 5832 5830 5827 5825 5822 5820 5817 5814 5811 5809 5806 5803 5800 5797 5795 5792 5789 5786 5783 5780 5777 5775 5772 5770 5767 5764 5761 5758 5755 5753 5750 5748 5747 5745
5845 5844 5842 5840 5838 5835 5833 5831 5828 5826 5824 5821 5819 5816 5813 5810 5807 5805 5802 5799 5796 5794 5791 5788 5785 5782 5779 5776 5774 5771 5768 5765 5762 5759 5756 5753 5750 5747 5745 5742 5740 5738 5736
5839 5837 5835 5834 5832 5829 5827 5825 5822 5820 5818 5815 5813 5810 5807 5803 5800 5798 5795 5792 5790 5787 5784 5781 5779 5776 5773 5770 5767 5764 5761 5758 5755 5752 5748 5745 5743 5739 5736 5734 5731 5729 5727
5833 5831 5828 5827 5825 5823 5821 5819 5816 5813 5811 5809 5806 5803 5800 5797 5794 5791 5788 5786 5783 5780 5777 5775 5772 5769 5767 5763 5760 5757 5754 5750 5747 5744 5741 5738 5735 5731 5728 5725 5722 5720 5718
5827 5825 5823 5821 5819 5817 5815 5812 5810 5807 5804 5802 5799 5797 5794 5791 5788 5785 5782 5779 5776 5773 5771 5768 5765 5763 5760 5757 5754 5750 5747 5744 5740 5737 5733 5730 5726 5723 5720 5716 5714 5711 5709
5819 5818 5817 5815 5813 5811 5809 5806 5803 5801 5798 5795 5792 5790 5787 5784 5781 5779 5776 5773 5770 5767 5764 5762 5759 5756 5753 5750 5747 5743 5740 5736 5733 5729 5725 5721 5718 5714 5711 5707 5705 5702 5700
5813 5811 5810 5808 5806 5804 5802 5800 5797 5794 5792 5789 5786 5784 5781 5778 5775 5772 5769 5766 5764 5761 5758 5755 5752 5749 5746 5743 5739 5736 5732 5728 5724 5720 5716 5713 5709 5706 5703 5700 5697 5694 5692